Weather in Kindasovo

Russia / Republic of Karelia     61°43′32″N   33°27′15″E
temp.,
°C
wind,
m/s
gust,
m/s
humid.,
%
clouds,
%
prec.,
mm/h
press.,
hPa
HPBL,
m
18 september, sat
sat1800:00+6ne2478100 0.0 1027123
03:00+5ne268997 0.1 1028176
06:00+2ne249476 0.0 102996
09:00+6ene377880 0.0 1029348
12:00+8ene3364100 0.0 10291101
15:00+7ne3460100 0.1 10301257
18:00+6ene3661100 0.0 1030801
21:00+5ene2673100 0.0 1030231
19 september, sun
sun1900:00+5ene2472100 0.0 1031126
03:00+5ene2573100 0.0 1031178
06:00+4ne2576100 0.0 1031182
09:00+6ne2570100 0.0 1031293
12:00+7ene3559100 0.1 10311224
15:00+8ene465595 0.1 10311544
18:00+7ene4761100 0.0 1031876
21:00+6ene3863100 0.0 1031667
20 september, mon
mon2000:00+4ne397692 0.0 1032361
03:00+5e3864100 0.0 1032790
06:00+5ene497119 0.0 1032822
09:00+6ene49685 0.0 10331176
12:00+7e695362 0.0 10321405
15:00+7ene575489 0.0 10311440
18:00+6ene4865100 0.0 10311146
21:00+5ene3767100 0.0 10311006
21 september, tue
tue2100:00+4ene3771100 0.0 1030725
03:00+4ene2673100 0.0 1029446
06:00+4ne2772100 0.0 1028429
09:00+5ene3771100 0.0 1027774
12:00+6ene4562100 0.0 1026947
15:00+8ene4556100 0.0 10251142
18:00+6ene376879 0.0 1024426
21:00+2nne258878 0.0 102499
22 september, wed
wed2200:00+1ne249344 0.0 102476
03:00+1ne25975 0.0 102285
06:00+1ne269845 0.0 1023123
09:00+5ne25835 0.0 1022268
12:00+10ene34595 0.0 1021931
15:00+11ene33567 0.0 1020947
18:00+7ene23745 0.0 102063
21:00+3e118952 0.0 102012